Flag for Germany Weather past 2 weeks in Calw, Baden-Württemberg, Germany

Now
53 °F

Fog.


Feels Like: 53 °F
Forecast: 56 / 76 °F
Wind: 1 mph from Northeast

Location: Stuttgart-Echterdingen

Current Time: Sep 17, 2014 at 7:40:20 AM

Latest Report: Sep 17, 2014 at 7:00 AM


Visibility: 2 mi

Pressure: 29.96 "Hg

Humidity: 98%

Dew point: 52 °F

Location of CalwLocation

Historic Weather in Calw — Graph

°F

Calw temperature yesterday

Maximum temperature yesterday: 73 °F (at 4:00 PM)
Minimum temperature yesterday: 51 °F (at 7:00 AM)
Average temperature yesterday: 61 °F

Past Weeks' High & Low Weather Summary

 TemperatureHumidityPressure
High76 °F (Sep 6, 3:00 PM)99% (Sep 5, 8:00 AM)30.19 "Hg (Sep 5, 8:00 AM)
Low51 °F (Sep 17, 6:00 AM)51% (Sep 9, 4:00 PM)29.86 "Hg (Sep 6, 4:00 PM)
Average61 °F84%30.03 "Hg
* Reported Sep 2 6:00 AM — Sep 17 6:00 AM, Calw, Weather by CustomWeather, © 2014

Note: Actual official high and low records may vary slightly from our data, if they occured in-between our weather recording intervals... More about our weather records

Advertising

Calw weather history for previous 24 hours

 ConditionsComfort  
Time TempWeatherWind HumidityBarometerVisibility
6:00 AM
Sep 17
51 °FFog.1 mph95%29.96 "Hg2 mi
4:00 AM52 °FFog.1 mph94%29.96 "Hg3 mi
3:00 AM54 °FFog.1 mph92%29.96 "Hg3 mi
2:00 AM54 °FClear.1 mph94%29.96 "Hg5 mi
1:00 AM55 °FFog.1 mph92%29.97 "Hg6 mi
12:00 AM57 °FPassing clouds.1 mph91%29.97 "Hg7 mi
11:00 PM
Sep 16
58 °FPassing clouds.1 mph92%29.97 "Hg8 mi
10:00 PM60 °FPassing clouds.2 mph89%29.97 "Hg10 mi
9:00 PM62 °FPassing clouds.2 mph86%29.97 "Hg16 mi
8:00 PM64 °FPassing clouds.2 mph80%29.95 "Hg19 mi
7:00 PM66 °FPassing clouds.3 mph73%29.94 "Hg28 mi
6:00 PM71 °FPassing clouds.5 mph62%29.93 "Hg31 mi
5:00 PM71 °FPassing clouds.3 mph61%29.92 "Hg31 mi
4:00 PM73 °FPassing clouds.1 mph60%29.92 "Hg31 mi
3:00 PM73 °FPassing clouds.1 mph62%29.94 "Hg25 mi
2:00 PM71 °FPassing clouds.1 mph65%29.95 "Hg22 mi
1:00 PM68 °FPartly sunny.1 mph72%29.97 "Hg12 mi
12:00 PM65 °FPartly sunny.1 mph75%29.99 "Hg12 mi
11:00 AM64 °FPartly sunny.1 mph80%30.00 "Hg11 mi
10:00 AM60 °FScattered clouds.1 mph86%30.01 "Hg7 mi
9:00 AM54 °FFog.1 mph95%30.02 "Hg4 mi
8:00 AM51 °FFog.1 mph97%30.03 "Hg3 mi
7:00 AM51 °FFog.No wind97%30.02 "Hg3 mi
Weather by CustomWeather, © 2014

See weather overviewHow to use our weather pages